Weather History for Kenansville, NC

Change the Weather History Date:

Friday, February 15, 2013

  Actual Average (KGSB) Record (KGSB)
Temperature  
Mean Temperature 45 °F -  
Max Temperature 61 °F 56 °F 73 °F (2001)
Min Temperature 30 °F 36 °F 24 °F (2007)
Degree Days  
Heating Degree Days 20    
Moisture  
Dew Point 34 °F    
Average Humidity 77    
Maximum Humidity 100    
Minimum Humidity 31    
Precipitation  
Precipitation 0.00 in - - ()
Sea Level Pressure  
Sea Level Pressure 30.04 in    
Wind  
Wind Speed 1 mph (SW)    
Max Wind Speed 5 mph    
Max Gust Speed -    
Visibility 8 miles    
Events      
Averages and records for this station are not official NWS values.
T = Trace of Precipitation, MM = Missing Value Source: NWS Daily Summary

Daily Weather History Graph

Daily Weather History Graph

Search for Another Location

Airport:

Trip Planner

Search our weather history database for the weather conditions in past years. The results will help you decide how hot, cold, wet, or windy it might be!

Date:

Astronomy

Feb. 15, 2013 Rise Set
Actual Time 6:57 AM EST 5:54 PM EST
Civil Twilight 6:31 AM EST 6:20 PM EST
Nautical Twilight 6:02 AM EST 6:50 PM EST
Astronomical Twilight 5:32 AM EST 7:19 PM EST
Moon 9:47 AM EST (2/15) 11:37 PM EST (2/15)
Length of Visible Light 11h 49m
Length of Day
10h 57m
Waxing Crescent, 30% of the Moon is Illuminated
Feb 15
Waxing Crescent
Feb 17
First Quarter
Feb 25
Full
Mar 4
Last Quarter
Mar 11
New

Hourly Weather History & Observations

Time (EST) Temp. Windchill Dew Point Humidity Pressure Visibility Wind Dir Wind Speed Gust Speed Precip Events Conditions
12:15 AM 33.4 °F - 33.4 °F 100% 30.08 in 2.5 mi Calm Calm - N/A   Clear
12:35 AM 33.8 °F - 33.8 °F 100% 30.09 in 2.5 mi Calm Calm - N/A   Clear
12:55 AM 33.4 °F - 33.4 °F 100% 30.09 in 2.5 mi Calm Calm - N/A   Clear
1:15 AM 32.9 °F - 32.9 °F 100% 30.09 in 2.5 mi Calm Calm - N/A   Clear
1:55 AM 32.0 °F - 32.0 °F 100% 30.07 in 2.5 mi Calm Calm - N/A   Clear
2:15 AM 31.6 °F - 31.6 °F 100% 30.08 in 2.5 mi Calm Calm - N/A   Clear
2:35 AM 31.1 °F - 31.1 °F 100% 30.08 in 2.5 mi Calm Calm - N/A   Clear
2:55 AM 30.7 °F - 30.7 °F 100% 30.07 in 3.0 mi Calm Calm - N/A   Clear
3:15 AM 30.7 °F - 30.7 °F 100% 30.08 in 2.5 mi Calm Calm - N/A   Clear
3:35 AM 30.9 °F 27.5 °F 30.9 °F 100% 30.08 in 2.5 mi WSW 3.5 mph - N/A   Clear
3:55 AM 32.0 °F - 32.0 °F 100% 30.08 in 5.0 mi Calm Calm - N/A   Clear
4:15 AM 32.0 °F - 32.0 °F 100% 30.08 in 3.0 mi Calm Calm - N/A   Clear
4:35 AM 31.5 °F - 31.5 °F 100% 30.08 in 2.5 mi Calm Calm - N/A   Clear
4:55 AM 31.1 °F - 31.1 °F 100% 30.08 in 3.0 mi Calm Calm - N/A   Clear
5:15 AM 30.4 °F - 30.4 °F 100% 30.08 in 3.0 mi Calm Calm - N/A   Clear
5:35 AM 30.6 °F - 30.6 °F 100% 30.08 in 4.0 mi Calm Calm - N/A   Clear
5:55 AM 30.2 °F - 30.2 °F 100% 30.08 in 3.0 mi Calm Calm - N/A   Clear
6:15 AM 30.2 °F - 30.2 °F 100% 30.08 in 4.0 mi Calm Calm - N/A   Clear
6:35 AM 30.2 °F - 30.2 °F 100% 30.08 in 5.0 mi Calm Calm - N/A   Clear
6:55 AM 30.4 °F - 30.4 °F 100% 30.09 in 5.0 mi Calm Calm - N/A   Clear
7:15 AM 30.2 °F - 30.2 °F 100% 30.09 in 4.0 mi Calm Calm - N/A   Clear
7:35 AM 31.1 °F - 31.1 °F 100% 30.09 in 4.0 mi Calm Calm - N/A   Clear
7:55 AM 32.7 °F - 32.7 °F 100% 30.10 in 4.0 mi Calm Calm - N/A   Clear
8:15 AM 35.8 °F - 35.8 °F 100% 30.11 in 1.8 mi Calm Calm - N/A   Mist
8:35 AM 39.0 °F - 39.0 °F 100% 30.11 in 3.0 mi Calm Calm - N/A   Clear
8:55 AM 42.6 °F - 40.6 °F 93% 30.11 in 10.0 mi Calm Calm - N/A   Clear
9:15 AM 45.9 °F - 39.0 °F 77% 30.11 in 10.0 mi Calm Calm - N/A   Clear
9:35 AM 48.6 °F - 39.0 °F 70% 30.11 in 10.0 mi WNW 3.5 mph - N/A   Clear
9:55 AM 49.8 °F - 39.0 °F 66% 30.11 in 10.0 mi NW 4.6 mph - N/A   Clear
10:15 AM 51.1 °F - 38.5 °F 62% 30.10 in 10.0 mi NW 4.6 mph - N/A   Clear
10:35 AM 52.5 °F - 37.8 °F 57% 30.10 in 10.0 mi NW 4.6 mph - N/A   Clear
10:55 AM 53.8 °F - 36.0 °F 51% 30.10 in 10.0 mi Calm Calm - N/A   Clear
11:15 AM 54.5 °F - 35.2 °F 48% 30.09 in 10.0 mi Calm Calm - N/A   Clear
11:35 AM 55.9 °F - 35.1 °F 45% 30.08 in 10.0 mi Calm Calm - N/A   Clear
11:55 AM 56.7 °F - 34.3 °F 43% 30.07 in 10.0 mi Calm Calm - N/A   Clear
12:15 PM 57.7 °F - 33.3 °F 40% 30.06 in 10.0 mi West 3.5 mph - N/A   Clear
12:35 PM 57.9 °F - 32.2 °F 38% 30.05 in 10.0 mi Calm Calm - N/A   Clear
1:15 PM 59.2 °F - 29.5 °F 32% 30.03 in 10.0 mi Calm Calm - N/A   Clear
1:55 PM 60.1 °F - 30.6 °F 33% 30.01 in 10.0 mi SW 3.5 mph - N/A   Clear
2:15 PM 60.1 °F - 30.2 °F 32% 30.01 in 10.0 mi Calm Calm - N/A   Clear
2:35 PM 59.9 °F - 30.0 °F 32% 30.00 in 10.0 mi ENE 3.5 mph - N/A   Clear
2:55 PM 60.6 °F - 29.5 °F 31% 30.00 in 10.0 mi SW 4.6 mph - N/A   Clear
3:15 PM 60.4 °F - 29.8 °F 31% 29.99 in 10.0 mi Calm Calm - N/A   Clear
3:35 PM 60.3 °F - 30.6 °F 33% 29.98 in 10.0 mi SSE 4.6 mph - N/A   Clear
3:55 PM 59.7 °F - 30.6 °F 33% 29.98 in 10.0 mi Calm Calm - N/A   Clear
4:15 PM 60.1 °F - 31.1 °F 33% 29.98 in 10.0 mi SE 4.6 mph - N/A   Clear
4:35 PM 59.5 °F - 32.0 °F 35% 29.97 in 10.0 mi Calm Calm - N/A   Clear
4:55 PM 58.6 °F - 33.6 °F 39% 29.97 in 10.0 mi SE 3.5 mph - N/A   Clear
5:15 PM 56.5 °F - 36.3 °F 47% 29.96 in 10.0 mi Calm Calm - N/A   Clear
5:35 PM 51.4 °F - 41.7 °F 69% 29.96 in 10.0 mi Calm Calm - N/A   Clear
5:55 PM 48.7 °F - 41.5 °F 76% 29.96 in 10.0 mi Calm Calm - N/A   Clear
6:15 PM 46.0 °F - 41.2 °F 83% 29.97 in 10.0 mi Calm Calm - N/A   Clear
6:35 PM 44.2 °F - 40.1 °F 85% 29.97 in 10.0 mi Calm Calm - N/A   Clear
6:55 PM 43.9 °F - 39.4 °F 84% 29.98 in 10.0 mi Calm Calm - N/A   Clear
7:15 PM 45.0 °F - 38.7 °F 79% 29.98 in 10.0 mi Calm Calm - N/A   Clear
7:35 PM 47.7 °F - 37.6 °F 68% 29.98 in 10.0 mi SSE 3.5 mph - N/A   Clear
7:55 PM 46.8 °F - 37.9 °F 71% 29.98 in 10.0 mi Calm Calm - N/A   Clear
8:15 PM 45.0 °F - 38.5 °F 78% 29.99 in 10.0 mi Calm Calm - N/A   Clear
8:35 PM 44.2 °F - 37.6 °F 77% 29.99 in 10.0 mi Calm Calm - N/A   Clear
8:55 PM 43.5 °F - 38.1 °F 81% 29.99 in 10.0 mi Calm Calm - N/A   Clear
9:15 PM 42.6 °F - 38.3 °F 85% 29.99 in 10.0 mi Calm Calm - N/A   Clear
9:35 PM 40.6 °F - 38.3 °F 91% 29.99 in 10.0 mi Calm Calm - N/A   Clear
9:55 PM 40.5 °F - 37.9 °F 91% 29.99 in 10.0 mi Calm Calm - N/A   Clear
10:15 PM 39.6 °F - 37.6 °F 93% 29.98 in 10.0 mi Calm Calm - N/A   Clear
10:35 PM 38.3 °F - 36.5 °F 93% 29.98 in 10.0 mi Calm Calm - N/A   Clear
10:55 PM 38.5 °F - 36.9 °F 94% 29.98 in 10.0 mi Calm Calm - N/A   Clear
11:15 PM 37.9 °F - 36.5 °F 95% 29.98 in 10.0 mi Calm Calm - N/A   Clear
11:35 PM 37.8 °F - 36.5 °F 95% 29.97 in 10.0 mi Calm Calm - N/A   Clear
11:55 PM 37.4 °F - 36.0 °F 95% 29.96 in 10.0 mi Calm Calm - N/A   Clear